Theta_e
359 357 355 355 354 354 353 351 350 350 347 342 341 345 344 347 347 342 348 346 345 345 337 335 338 339 340 332 334 331 336 339 339 340 344 340 340 341 338 339 348 349 350
347 346 343 342 343 344 340 343 343 344 346 346 344 343 339 340 339 338 338 344 344 344 342 340 334 331 330 329 328 332 333 333 332 333 335 339 341 343 341 339 339 345 347
347 344 341 337 336 335 336 337 337 338 339 339 340 341 340 337 339 339 338 336 338 338 335 335 334 333 332 329 329 331 332 334 330 329 328 330 334 334 333 336 337 339 341
346 346 346 342 339 344 343 340 339 339 340 341 340 340 340 337 337 336 335 333 335 334 338 338 337 336 337 337 337 335 334 333 332 331 329 327 329 332 335 338 337 338 337
347 347 346 345 344 345 344 340 337 338 338 338 336 334 336 336 335 336 335 333 331 332 334 338 337 336 336 338 337 334 333 334 332 332 331 329 323 328 337 338 338 338 343
347 346 345 345 344 344 342 340 336 340 338 336 334 338 338 337 338 339 338 338 338 337 337 337 337 336 335 333 331 332 334 333 332 331 330 329 329 323 326 333 339 340 338
347 344 343 343 343 341 339 336 336 334 333 333 335 334 335 338 337 336 336 336 335 332 328 324 322 319 322 329 330 331 330 328 328 328 329 330 329 329 328 325 326 333 338
345 344 341 339 339 335 333 333 331 328 325 321 319 318 317 315 315 312 309 307 307 307 307 308 314 317 320 323 324 326 326 326 326 327 329 330 330 330 332 333 335 333 332
340 337 334 333 332 331 329 327 323 318 313 315 316 315 311 311 310 312 313 312 310 311 315 316 316 316 316 315 316 317 319 317 317 321 325 325 326 327 327 328 329 330 331
336 334 332 330 328 324 320 317 313 311 318 312 315 311 311 315 318 317 313 312 311 311 309 308 311 314 315 315 314 314 316 317 316 314 312 317 322 326 327 327 329 331 332
331 329 328 324 318 318 317 312 310 309 311 313 313 313 313 315 314 312 312 311 311 311 310 310 311 313 314 314 315 315 315 314 314 313 313 313 310 309 309 316 326 330 332
326 324 321 316 314 317 312 310 311 314 315 314 314 314 313 312 311 311 311 311 311 310 309 308 309 309 309 310 311 312 313 313 314 314 314 313 314 315 314 310 324 328 330
322 322 321 319 318 318 316 316 316 315 314 313 313 313 311 310 310 310 311 311 311 309 309 308 307 307 308 308 309 309 311 310 311 311 312 315 316 317 318 317 321 326 329
321 320 318 317 316 315 317 316 316 316 315 314 313 311 311 310 310 311 311 311 310 309 308 308 308 307 308 308 308 310 311 311 311 312 313 315 315 316 319 318 318 325 329
318 317 317 317 316 315 315 315 315 314 314 313 311 311 311 311 310 310 310 309 308 308 308 308 308 307 306 307 308 309 310 311 310 311 311 312 314 315 316 319 323 325 327
317 316 316 315 314 314 314 315 314 313 312 312 312 311 310 310 309 309 309 308 308 308 308 308 307 307 307 307 307 308 310 310 310 310 310 310 311 313 314 315 317 320 324
317 317 316 316 315 313 312 312 312 312 312 312 311 311 310 309 309 308 308 308 308 309 308 308 307 306 306 306 306 306 307 307 308 308 308 308 309 311 311 312 314 316 320
318 316 316 315 313 312 312 312 312 312 311 312 312 311 309 309 308 307 307 306 307 308 308 308 308 307 306 306 305 305 304 305 306 306 307 307 308 309 309 310 312 313 316
317 317 315 314 313 312 312 312 311 312 312 311 310 309 308 307 307 307 307 307 306 306 306 307 307 307 307 306 306 305 304 303 304 304 305 306 307 307 308 307 310 312 314
317 315 314 313 312 311 310 311 313 311 310 309 309 309 307 307 307 307 307 307 306 306 306 306 306 306 307 307 307 305 304 303 303 303 303 304 306 306 306 306 308 310 313
315 313 313 312 311 310 312 312 311 310 309 309 308 308 308 308 307 307 307 306 306 306 307 307 306 306 306 306 306 305 304 303 303 303 302 304 305 305 305 306 308 311 315
313 313 311 310 310 312 312 311 310 310 309 308 308 307 308 309 308 307 307 307 307 307 306 305 304 304 304 304 304 304 303 303 304 303 302 302 304 305 305 307 311 314 316
312 312 310 309 311 312 312 311 310 309 309 308 308 308 309 309 307 307 307 307 307 306 306 304 303 303 302 303 303 303 303 303 304 303 302 302 303 305 305 308 310 312 315
312 310 309 311 312 312 311 310 310 310 309 308 308 309 308 307 306 307 307 307 307 306 306 304 302 302 303 302 302 302 302 302 303 302 302 302 303 304 306 308 310 312 314
311 310 310 312 312 312 311 311 310 309 309 309 308 309 308 307 307 306 307 306 306 307 308 304 301 299 299 300 302 302 302 302 302 302 302 302 304 305 307 308 310 311 313
311 310 311 312 312 311 311 310 310 309 310 308 309 308 308 307 307 306 306 305 306 307 309 307 307 305 304 303 301 302 302 302 302 302 302 302 304 305 306 308 309 312 312
Wind_Speed
12 13 11 13 14 15 18 19 17 13 12 14 20 18 15 17 6 7 6 5 5 6 7 5 6 10 12 12 13 13 14 18 18 18 18 20 18 17 20 20 22 24 24
2 3 3 2 2 3 4 9 12 12 10 9 17 16 26 23 16 9 9 7 4 6 6 9 10 11 13 14 14 15 18 20 20 23 19 17 19 19 15 18 18 25 28
3 2 3 5 6 6 6 5 7 9 15 19 18 14 13 21 22 15 12 11 12 11 11 12 12 14 16 16 15 16 16 17 23 23 25 22 22 22 22 24 21 22 24
8 6 6 5 6 8 9 9 6 6 6 5 7 11 11 9 11 12 13 10 9 14 14 14 16 17 16 17 17 18 20 27 29 27 25 24 23 20 22 22 21 23 23
4 1 2 6 6 5 4 5 5 4 4 4 4 4 8 11 16 16 15 17 15 19 20 20 20 20 20 22 25 28 26 26 26 24 26 28 28 23 19 14 17 17 14
6 1 5 6 5 4 2 0 1 2 4 5 6 5 5 8 10 12 12 14 17 21 25 26 28 27 29 28 27 27 26 24 26 28 31 31 30 28 31 25 20 17 22
7 6 5 3 3 2 2 4 5 5 6 7 8 10 10 11 15 20 21 23 24 25 26 28 31 31 26 27 29 30 34 35 34 31 29 29 31 27 24 27 32 32 27
7 7 5 2 0 3 6 8 9 9 11 12 11 13 15 15 17 19 19 20 21 21 22 22 22 23 23 24 25 27 29 29 26 28 28 28 28 28 29 30 30 33 39
5 3 2 3 4 6 8 10 11 12 11 12 11 14 13 14 15 16 17 19 16 16 14 15 19 21 24 26 26 30 33 35 34 30 27 30 33 32 33 33 36 37 40
4 5 5 6 7 9 10 12 11 9 5 13 10 12 14 12 11 17 23 23 24 21 24 23 19 18 22 24 27 30 33 36 35 37 35 36 35 35 34 35 37 37 38
3 5 7 7 5 12 13 11 11 9 11 11 14 15 12 11 15 20 18 18 18 24 26 22 19 20 25 29 31 33 35 37 39 40 44 42 38 39 36 33 38 37 38
3 4 7 9 3 8 12 11 10 11 11 13 13 12 11 12 17 19 22 26 24 26 34 33 30 34 35 35 36 37 39 43 46 46 44 42 37 33 34 30 29 33 39
2 3 4 8 7 10 13 12 12 10 11 12 13 14 16 17 18 18 22 21 27 36 42 40 41 41 36 36 37 35 25 26 29 31 32 29 29 30 31 31 30 35 32
2 4 5 7 8 10 8 10 9 11 14 13 15 21 21 22 21 18 24 31 39 43 41 40 45 44 39 34 29 24 23 25 27 28 29 30 32 30 30 31 36 34 29
4 6 8 8 7 12 12 11 15 13 15 19 22 23 22 19 18 24 29 34 38 42 42 43 42 39 37 28 22 21 21 28 29 27 29 33 28 28 34 31 27 29 30
5 5 6 9 10 11 13 14 14 17 17 22 22 18 15 20 22 27 35 38 36 33 32 33 30 29 29 27 26 27 24 24 28 31 28 30 31 26 32 36 37 35 30
5 7 9 9 11 14 15 16 17 19 18 17 21 10 13 24 32 37 36 36 32 28 30 30 28 26 29 30 30 30 30 29 29 34 33 31 32 31 31 34 34 35 33
7 9 10 11 15 15 15 17 18 18 20 15 14 21 29 34 31 31 32 31 28 29 30 30 30 29 28 27 29 31 31 29 27 30 31 30 31 26 26 28 27 33 31
9 10 11 15 14 16 17 15 18 17 19 22 26 24 21 28 33 34 33 29 30 33 34 34 34 34 32 30 29 29 31 29 28 33 33 30 31 31 30 33 27 26 28
11 14 15 13 16 16 17 16 17 21 20 17 18 20 24 33 38 42 40 36 37 37 37 37 37 37 35 33 32 29 29 29 28 26 28 28 27 26 28 29 27 29 25
14 13 13 13 15 16 14 17 19 16 15 18 19 23 29 32 31 42 46 42 40 37 37 39 40 39 38 37 34 32 29 29 28 26 23 24 24 25 25 26 24 25 25
14 12 13 14 14 13 16 15 14 15 17 20 27 28 30 31 33 45 44 40 40 40 43 44 45 44 43 40 36 32 29 28 27 26 25 23 22 24 23 23 17 21 21
12 14 14 13 14 13 15 13 14 15 19 27 24 30 30 35 42 47 40 40 45 49 50 49 47 45 41 39 39 34 32 28 26 24 22 22 23 22 22 23 18 16 17
13 12 12 13 13 14 12 14 14 18 21 25 28 29 33 34 46 46 39 43 48 55 57 51 47 43 41 38 33 35 32 27 24 22 21 21 20 21 18 17 16 13 15
12 11 12 11 11 12 13 15 17 20 25 26 32 33 31 35 44 42 42 44 49 54 56 48 43 34 27 28 26 26 27 24 20 19 20 20 19 18 17 19 18 16 16
11 10 11 11 12 13 15 17 19 28 19 33 31 30 33 40 39 37 44 46 46 51 51 52 44 37 28 19 21 21 20 20 19 18 19 23 23 20 21 23 20 19 19
Wind_Direction
214 224 238 255 263 263 262 266 267 254 246 277 270 262 263 296 250 201 198 200 213 217 228 261 285 282 286 290 289 292 298 304 319 314 302 310 311 294 292 274 253 255 260
227 256 261 264 307 327 280 257 260 268 268 266 262 273 251 276 275 251 238 229 218 219 241 246 272 291 281 285 292 284 279 287 307 308 301 306 305 300 299 297 286 264 251
102 65 91 95 51 20 5 339 296 286 279 277 278 299 260 256 266 248 239 242 250 246 259 263 264 272 275 301 297 300 305 292 296 300 295 294 297 291 282 286 290 290 274
81 63 13 5 44 30 29 22 44 15 9 329 299 279 278 239 235 237 246 258 265 282 283 268 277 282 285 289 289 288 285 292 293 291 292 286 284 287 289 277 274 276 288
122 78 54 64 47 24 16 6 14 358 348 346 341 300 259 262 268 277 280 266 267 279 276 272 278 283 277 277 282 288 291 289 290 286 287 294 282 269 279 302 293 268 280
189 168 135 176 195 169 200 338 300 319 306 305 307 317 304 275 279 273 266 258 260 263 270 273 278 281 286 293 289 285 280 279 279 285 288 288 288 281 273 278 282 286 285
165 151 151 186 186 219 257 292 301 301 298 289 284 278 266 268 268 270 275 278 280 282 285 286 286 286 281 272 271 274 275 276 278 280 277 277 281 284 287 287 278 278 272
137 141 158 178 135 287 300 303 307 309 311 308 300 292 290 287 283 287 289 292 293 292 288 291 295 292 293 294 288 282 279 277 272 269 272 274 276 279 279 279 276 275 273
111 192 244 260 280 296 301 306 308 311 311 308 311 309 313 311 313 315 323 325 322 315 321 304 297 293 286 285 284 282 281 282 280 275 270 267 264 263 265 272 273 277 274
253 260 282 292 302 307 313 315 322 330 323 311 303 321 334 340 339 320 325 327 330 319 314 305 301 306 299 293 286 283 282 282 283 284 277 270 265 263 260 256 261 266 268
219 274 290 306 328 316 317 318 324 327 327 353 350 354 359 349 314 322 328 326 318 318 322 319 306 287 277 275 275 277 280 282 281 281 285 285 282 278 270 262 257 261 264
273 283 304 314 288 268 310 324 341 356 353 338 331 330 319 318 320 324 312 312 311 318 320 313 297 290 285 281 279 279 279 278 277 279 280 284 288 286 282 268 263 266 264
294 286 300 317 336 330 338 355 344 335 323 322 324 320 320 315 309 311 310 307 304 308 318 317 315 313 303 295 291 292 290 288 290 289 276 270 271 274 284 284 260 268 271
293 315 323 301 312 326 334 318 321 318 314 317 314 316 313 311 314 303 291 297 303 310 314 310 310 309 311 308 304 298 294 289 291 288 282 284 285 281 283 276 272 271 271
303 321 341 333 314 316 326 319 314 314 308 307 315 315 308 305 296 290 296 307 309 311 310 308 307 307 308 303 301 295 282 280 287 291 288 285 281 286 281 266 268 269 272
3 333 318 327 319 320 319 318 317 319 321 315 316 319 303 280 292 305 310 312 315 315 309 314 313 306 302 302 295 290 286 284 275 280 282 288 275 280 279 279 274 274 271
350 341 325 335 329 324 322 322 323 315 321 332 325 314 335 326 323 321 320 318 315 315 314 315 314 302 294 292 289 284 281 278 273 273 277 279 281 281 281 272 286 273 273
338 344 336 330 325 323 322 315 317 326 335 346 350 329 332 328 332 334 332 328 325 320 316 317 316 313 309 298 292 290 289 290 275 271 272 268 272 269 282 268 281 281 271
347 331 323 322 323 322 323 330 333 337 336 324 317 319 332 334 336 339 341 327 320 322 322 317 315 313 310 307 304 296 290 291 275 269 268 264 266 268 270 277 263 279 272
337 331 330 327 323 329 334 335 334 331 329 331 329 324 338 347 351 347 339 327 322 321 322 319 315 314 310 307 304 301 297 293 292 281 268 265 263 265 262 270 262 266 271
332 323 322 327 331 333 330 341 332 334 333 327 327 326 318 319 332 336 339 333 330 326 327 324 318 311 306 303 301 300 297 293 289 288 270 263 262 269 269 265 266 255 264
325 318 327 328 330 329 335 333 331 328 326 324 323 326 336 325 322 332 335 335 337 335 333 321 310 303 299 298 298 296 293 288 287 285 275 262 259 262 266 265 268 273 255
320 323 326 330 329 325 331 327 326 325 323 328 326 326 326 327 332 334 338 344 340 338 332 323 313 305 300 292 291 292 288 285 284 283 272 258 250 260 257 258 282 284 265
309 326 328 326 327 330 324 324 327 332 330 331 328 327 335 342 341 341 337 345 349 345 338 326 318 308 297 294 289 284 285 284 280 275 267 247 251 249 260 263 274 271 266
322 325 326 326 324 323 325 327 328 329 331 334 329 329 332 336 340 346 350 356 353 348 346 346 339 328 305 266 271 280 278 276 273 267 258 235 241 249 252 255 256 263 273
321 318 320 319 318 319 322 323 323 329 328 338 330 337 335 339 341 348 354 355 356 351 348 355 357 1 353 323 264 268 269 266 263 257 252 234 225 230 238 243 250 259 270